Location: Acequia del Cap
(41.7000°N, 0.6167°E)
Time: 00:42:06
(UTC+00:00)

IDEFIX/ARIANE 42P - Pass Details

Date: 07 August 2020
Orbit: 786 x 802 km, 98.4° (Epoch: 22 September)

Event Time Altitude Azimuth Distance (km) Brightness Sun altitude
Rises 02:11:36 0° 26° (NNE) 3,289 7.1 -24.9°
Reaches altitude 10° 02:14:21 10° 39° (NE) 2,356 6.1 -24.6°
Maximum altitude 02:18:35 25° 94° (E) 1,552 4.4 -24.1°
Enters shadow 02:21:55 14° 142° (SE) 2,085 4.6 -23.7°
